Powrót do katalogu

DALINGHAOWAN

AktywnyNaukaSSO
NORAD 63993·PAYLOAD·🇨🇳 China
Ta nazwa satelity nie została jeszcze potwierdzona przez oficjalne źródła.

Wystrzelony May 14, 2025 z Jiuquan Satellite Launch Center

Loading…

Następne Przeloty (najbliższe 24 godziny)

TLE

ŚwieżeSource: Space-Track

Epoka: Sep 14, 2026, 15:11 UTC

1 63993U 25100M   26257.63294868  .00015918  00000-0  56518-3 0  9998
2 63993  97.3587 333.7290 0005319  16.4835 343.6577 15.29107805 74568

Śledź DALINGHAOWAN w czasie rzeczywistym z AllMySat

Download on the App Store